x

Buoy E01 - Central Maine Shelf (44032) Wave Buoy

7:04 - Tue 28th Mar 2017 All times are EDT. -4 hours from GMT.

  • Sig Wave height 4.3ft
  • Peak Period 6s
  • Wind
    13mph, 16mph gusts
  • Sea Temp 38°f
  • Luft Temp 33°f
  • Sea Pressure 1016.5mb
  • Buoy E01 - Central Maine Shelf
  • Buoy E01 - Central Maine Shelf

More Historic Weather Station data

Upgrade to MSW Pro to gain access to the past 30 days of data for over 8000 Wavebouys and Weather Stations around the globe.

Join Pro

Comparision Forecast

View Surf forecast
   
Di 03/28 7:04 4.5ft 6s 13 16 mph 1016.5mb 38f 33f
6:04 3.5ft 6s 13 16 mph 1016.5mb 38f 33f
5:04 4.5ft 8s 11 13 mph 1016.5mb 38f 33f
4:04 5.5ft 8s 13
mph
1016.4mb 38f 33f
3:04 5ft 8s 11 16 mph 1016.4mb 38f 33f
2:04 6ft 6s 16 18 mph 1016.1mb 39f 33f
1:04 8ft 8s 18 20 mph 1015.5mb 40f 34f
12:04 6ft 6s 20 22 mph 1015.4mb 40f 34f
Mo 03/27 11:04 8ft 8s 20 25 mph 1015.4mb 39f 34f
10:04 7ft 6s 22 27 mph 1015.8mb 40f 35f
9:04 8ft 8s 22 27 mph 1015.7mb 39f 35f
8:04 7ft 8s 20 25 mph 1016.3mb 39f 35f
7:04 9ft 8s 25 27 mph 1016.2mb 39f 35f
6:04 9ft 8s 25 29 mph 1016.9mb 39f 35f
5:04 7ft 6s 22 27 mph 1017.9mb 39f 35f
4:04 7.5ft 6s 18 22 mph 1019.5mb 39f 36f
3:04 6.5ft 6s 22 27 mph 1019.5mb 39f 36f
2:04 5ft 6s 25 29 mph 1020.5mb 39f 35f
1:04 5ft 5s 27 31 mph 1021.4mb 39f 35f
12:04 4.5ft 5s 20 25 mph 1023.2mb 39f 37f
11:04 4ft 5s 18 20 mph 1024.2mb 39f 36f
10:04 4ft 5s 20 25 mph 1024.7mb 39f 36f
9:04 3.5ft 4s 18 22 mph 1025.5mb 38f 36f
8:04 2.5ft 4s 18 20 mph 1026.2mb 37f 36f
7:04 2.5ft 3s 16 20 mph 1026.6mb 37f 36f
6:04 2ft 8s 16 18 mph 1027.4mb 38f 36f
5:04 1.6ft 8s 11 13 mph 1027.9mb 37f 36f
4:04 1.6ft 8s 9 13 mph 1028.5mb 37f 35f
3:04 0.7ft  -  9 11 mph 1029.2mb 37f 35f
2:04 0.7ft  -  7 9 mph 1029.8mb 38f 35f
1:04 1.6ft 8s 9 11 mph 1030.1mb 38f 35f
12:04 1.3ft 8s 9 11 mph 1030.4mb 38f 34f
So 03/26 11:04 1.6ft 6s 7 9 mph 1030.9mb 38f 34f
10:04 2ft 8s 9 11 mph 1031.6mb 38f 34f
9:04 2ft 8s 7 9 mph 1032.2mb 38f 33f
8:04 2ft 8s 11 13 mph 1032.8mb 38f 33f
7:04 2ft 8s 9 13 mph 1033.2mb 38f 33f
6:04 2.5ft 8s 9 11 mph 1033.5mb 38f 32f
5:04 2ft 8s 9
mph
1033.1mb 38f 32f
4:04 2.5ft 8s 9 11 mph 1033.3mb 38f 31f
3:04 2.5ft 8s 9 11 mph 1034.1mb 38f 31f
2:04 2.5ft 6s 9 11 mph 1034.5mb 38f 30f
1:04 2.5ft 11s 7 9 mph 1035.1mb 38f 29f
12:04 2.5ft 6s 9 11 mph 1035.7mb 38f 29f
11:04 3ft 8s 11 16 mph 1035.6mb 38f 29f
10:04 3.5ft 8s 16 20 mph 1035.4mb 37f 29f
9:04 2.5ft 4s 16 18 mph 1035.4mb 37f 29f
8:04 3ft 8s 18 20 mph 1035mb 37f 30f
7:04 2.5ft 8s 18 22 mph 1034.3mb 37f 30f
6:04 1.6ft 3s 18 20 mph 1033.9mb 37f 32f
5:04 2.5ft 8s 16 18 mph 1033.2mb 37f 32f
4:04 2.5ft 8s 16 18 mph 1032.2mb 37f 33f
3:04 2ft 3s 18 22 mph 1031.5mb 37f 34f
2:04 3.5ft 3s 20 22 mph 1030.6mb 37f 35f
1:04 3.5ft 8s 20 22 mph 1030.4mb 37f 36f
12:04 3ft 8s 16 18 mph 1030.1mb 37f 37f
Sa 03/25 11:04 2.5ft 8s 13 16 mph 1029.1mb 37f 37f
10:04 3.5ft 8s 11 13 mph 1028.3mb 37f 37f
9:04 2.5ft 8s 11 13 mph 1027.6mb 37f 37f
8:04 2.5ft 8s 11 13 mph 1026.7mb 37f 37f
7:04 2.5ft 8s 9 11 mph 1025.7mb 37f 37f
6:04 2ft 8s 9 11 mph 1025.3mb 37f 37f
5:04 1.6ft 6s 11
mph
1024.8mb 37f 37f
4:04 1.6ft 6s 9
mph
1024.6mb 38f 37f
3:04 1.6ft 6s 7 9 mph 1024.5mb 38f 37f
2:04 1.6ft 6s 4 7 mph 1024.3mb 37f 37f
1:04 2ft 6s 7 9 mph 1024.1mb 37f 37f
12:04 2.5ft 6s 11 13 mph 1023.2mb 37f 36f
11:04 2.5ft 6s 13
mph
1023.3mb 37f 36f
10:04 2.5ft 6s 13 18 mph 1023.2mb 37f 35f
9:04 3ft 6s 16 18 mph 1022.6mb 37f 34f
8:04 3ft 6s 13 16 mph 1021.4mb 37f 34f
7:04 3.5ft 8s 16 18 mph 1020.3mb 37f 34f
6:04 3.5ft 6s 13 16 mph 1019.2mb 37f 35f
5:04 4.5ft 8s 13
mph
1018.9mb 37f 35f
4:04 4ft 6s 11 13 mph 1018.3mb 37f 34f
3:04 4.5ft 8s 9 11 mph 1017.6mb 37f 34f
2:04 5ft 8s 11 13 mph 1017.8mb 37f 35f
1:04 6ft 8s 11 13 mph 1017.2mb 37f 35f
12:04 5.5ft 8s 13 16 mph 1017.5mb 37f 36f
Fr 03/24 11:04 7ft 8s 11 13 mph 1017mb 37f 36f
10:04 7ft 8s 11 13 mph 1017.3mb 37f 37f
9:04 7.5ft 8s 13 16 mph 1018.1mb 37f 37f
8:04 8ft 6s 20 25 mph 1018.1mb 37f 37f
7:04 8ft 8s 22 27 mph 1018.8mb 37f 36f
6:04 7.5ft 6s 22 29 mph 1019.7mb 37f 34f
5:04 8ft 6s 27 34 mph 1021.2mb 37f 34f
4:04 6ft 5s 27 31 mph 1022.5mb 37f 33f
3:04 5.5ft 5s 27 34 mph 1024mb 37f 33f
2:04 5.5ft 5s 25 29 mph 1025.7mb 37f 32f
1:04 4.5ft 5s 22 29 mph 1028mb 37f 31f